Location: Barrio Las Umbrías
(40.4173°N, 4.8685°W)
Time: 11:53:11
(UTC+00:00)

Cosmos 1447 Rocket - Pass Details

Date: 17 August 2022
Orbit: 955 x 995 km, 82.9° (Epoch: 27 September)

Event Time Altitude Azimuth Distance (km) Brightness Sun altitude
Exits shadow 21:53:09 56° 184° (S) 1,128 4.5 -26.1°
Maximum altitude 21:54:35 89° 94° (E) 964 4.3 -26.2°
Drops below altitude 10° 22:00:48 10° 7° (N) 2,708 7.3 -27.0°
Sets 22:03:19 0° 8° (N) 3,664 8.1 -27.3°
